[[{"header":{"parameterUnit":"m.s-1","parameterCategory":1,"la1":30.2991,"la2":30.254,"lo1":-89.0895,"lo2":-89.0444,"dy":0.0017,"dx":0.0017,"nx":28,"ny":28,"refTime":"2024-08-24T21:00:00:Z","depth":0,"parameterNumber":2,"parameterNumberName":"U-component_of_WINDS"},"data":[0,0,0,0,0,0,0,0,0,0,0,0,0,0,0,0,0,0,0,0,0,0,0,0,0,0,0,0,0,0,0,0,0,0,0,0,0,0,0,0,0,0,0,0,0,0,0,0,0,0,0,0,0,0,0,0,0,0,-0.8302,-0.8301,0,-0.8245,-0.8245,-0.8244,-0.8167,-0.8166,-0.8164,-0.8163,-0.8107,-0.8106,-0.8106,0,0,0,0,0,0,0,0,0,0,0,0,0,-0.8344,-0.8343,-0.8302,-0.8301,-0.83,-0.8245,-0.8245,-0.8244,-0.8167,-0.8166,-0.8164,-0.8163,-0.8107,-0.8106,-0.8106,0,0,0,0,0,0,0,0,0,0,0,0,0,-0.831,-0.8343,-0.8302,-0.8255,-0.8251,-0.8246,-0.8245,-0.8244,-0.8168,-0.8166,-0.8164,-0.8162,-0.8107,-0.8106,-0.8106,-0.8142,0,0,-0.8105,-0.8104,0,0,0,0,0,0,0,0,-0.8312,-0.8309,-0.8263,-0.8259,-0.8253,-0.8211,-0.8239,-0.821,-0.8168,-0.8199,-0.8163,-0.8161,-0.8143,-0.8139,-0.8133,-0.8139,-0.8137,-0.8105,-0.8104,-0.8104,-0.8104,0,0,0,0,0,0,0,-0.8315,-0.8311,-0.8279,-0.8262,-0.8256,-0.8238,-0.8231,-0.8233,-0.8183,-0.8196,-0.8191,-0.8185,-0.814,-0.8134,-0.8131,-0.8136,-0.8105,-0.8104,-0.8104,-0.8104,-0.8169,-0.8171,0,0,0,0,0,0,-0.8324,-0.8313,-0.8281,-0.8278,-0.8279,-0.8238,-0.8231,-0.8227,-0.8182,-0.8174,-0.8187,-0.8182,-0.8136,-0.8132,-0.8129,-0.8168,-0.8104,-0.8104,-0.8103,-0.8167,-0.8169,-0.8171,0,0,0,0,0,0,-0.8325,-0.8322,-0.8283,-0.8294,-0.8288,-0.824,-0.8236,-0.8227,-0.822,-0.8175,-0.8166,-0.8189,-0.8134,-0.813,-0.8139,-0.8165,-0.8103,-0.8103,-0.8164,-0.8167,-0.817,-0.8247,0,0,0,0,0,0,-0.8326,-0.8323,-0.8336,-0.8295,-0.8287,-0.8295,-0.8237,-0.8227,-0.822,-0.8212,-0.8175,-0.8167,-0.8132,-0.814,-0.8139,-0.8163,-0.8103,-0.8162,-0.8166,-0.8169,-0.8242,-0.8252,-0.8261,0,0,0,0,0,-0.8328,-0.836,-0.8337,-0.8333,-0.8303,-0.8296,-0.8292,-0.825,-0.8222,-0.8235,-0.8206,-0.8169,-0.8163,-0.8142,-0.814,-0.8165,-0.816,-0.8165,-0.8169,-0.8238,-0.825,-0.8261,0,0,0,0,0,0,-0.8406,-0.8354,-0.8327,-0.8347,-0.8327,-0.8283,-0.8298,-0.8265,-0.8253,-0.8247,-0.8196,-0.8188,-0.8204,-0.8185,-0.8163,-0.8197,-0.8156,-0.816,-0.8209,-0.822,-0.823,-0.8234,-0.8102,0,0,0,0,0,-0.8425,-0.8424,-0.8379,-0.84,-0.8391,-0.8347,-0.8342,-0.8312,-0.8289,-0.828,-0.8252,-0.8231,-0.8224,-0.8221,-0.8213,-0.8239,-0.823,-0.8255,-0.8264,-0.8272,-0.8277,-0.8289,-0.83,-0.8186,-0.8186,-0.8186,0,0,-0.8465,-0.8437,-0.8439,-0.8415,-0.8396,-0.8396,-0.834,-0.8343,-0.8342,-0.8281,-0.8288,-0.8266,-0.824,-0.8258,-0.8265,-0.8243,-0.8306,-0.8278,-0.8285,-0.8285,-0.8295,-0.8306,-0.8315,-0.8189,-0.8188,-0.8188,0,0,-0.8538,-0.8517,-0.8532,-0.8513,-0.8485,-0.8455,-0.8459,-0.842,-0.8403,-0.841,-0.8363,-0.8362,-0.8352,-0.8335,-0.8325,-0.8391,-0.8356,-0.839,-0.844,-0.8452,-0.8461,-0.8469,-0.8493,-0.8502,-0.8394,-0.8394,-0.8394,0,-0.8592,-0.859,-0.8544,-0.8549,-0.854,-0.8484,-0.8499,-0.8483,-0.8454,-0.8449,-0.8424,-0.841,-0.8388,-0.8401,-0.8417,-0.8411,-0.8414,-0.8394,-0.8464,-0.8471,-0.8477,-0.8499,-0.8508,-0.8398,-0.8398,-0.8397,-0.8397,0,-0.8657,-0.8657,-0.8672,-0.8645,-0.8637,-0.8647,-0.8603,-0.8601,-0.8571,-0.8544,-0.8551,-0.8523,-0.8507,-0.8508,-0.8479,-0.8517,-0.8505,-0.8473,-0.843,-0.8493,-0.8513,-0.8521,-0.8404,-0.8403,-0.8402,-0.8401,0,0,-0.8778,-0.8724,-0.8731,-0.8717,-0.8681,-0.868,-0.8688,-0.8672,-0.8671,-0.8652,-0.8658,-0.865,-0.862,-0.8609,-0.8577,-0.8588,-0.8643,-0.8555,-0.8554,-0.8573,-0.8683,-0.8707,-0.8718,-0.8619,-0.862,-0.8622,-0.8685,0,-0.8845,-0.8855,-0.8813,-0.8834,-0.8833,-0.8779,-0.8785,-0.8764,-0.8739,-0.8734,-0.8706,-0.8701,-0.8662,-0.8655,-0.8663,-0.8634,-0.8664,-0.8629,-0.8624,-0.8624,-0.8633,-0.8728,-0.8754,-0.8815,-0.8692,-0.8694,-0.8695,0,-0.8924,-0.8909,-0.8929,-0.8891,-0.8889,-0.8896,-0.8878,-0.8874,-0.8849,-0.8829,-0.8817,-0.878,-0.8785,-0.8744,-0.8751,-0.8728,-0.8723,-0.8708,-0.871,-0.8708,-0.8664,-0.8729,-0.8834,-0.8843,-0.8706,-0.8705,-0.8705,0,-0.9011,-0.8995,-0.9005,-0.8995,-0.8951,-0.8957,-0.8939,-0.8912,-0.8905,-0.8889,-0.8884,-0.887,-0.8862,-0.8852,-0.8812,-0.8786,-0.8823,-0.8779,-0.8808,-0.8809,-0.8819,-0.8819,-0.8924,-0.8815,-0.8815,-0.8815,-0.8815,0,-0.9089,-0.9104,-0.9043,-0.905,-0.9065,-0.9017,-0.9033,-0.901,-0.8986,-0.8987,-0.8939,-0.8941,-0.8888,-0.8885,-0.8854,-0.8864,-0.8861,-0.8845,-0.8837,-0.885,-0.8852,-0.8846,-0.8841,-0.8817,-0.8817,-0.8816,-0.8816,0,-0.9189,-0.9149,-0.9157,-0.9114,-0.9103,-0.9116,-0.908,-0.9084,-0.9055,-0.9057,-0.9055,-0.901,-0.9003,-0.8962,-0.8946,-0.8925,-0.8947,-0.893,-0.8955,-0.895,-0.8981,-0.8979,-0.9087,-0.9099,-0.8982,-0.8983,-0.8984,0,-0.9242,-0.9252,-0.921,-0.9207,-0.9191,-0.9187,-0.918,-0.9133,-0.9127,-0.9098,-0.9106,-0.9095,-0.9084,-0.9075,-0.9042,-0.9029,-0.9011,-0.905,-0.9009,-0.9022,-0.9012,-0.9013,-0.9013,-0.9059,-0.9061,-0.9062,-0.9063,0,-0.9341,-0.9321,-0.9311,-0.9295,-0.9287,-0.9273,-0.9255,-0.9255,-0.9203,-0.9199,-0.9191,-0.9182,-0.9165,-0.9155,-0.9137,-0.9118,-0.9083,-0.9076,-0.9082,-0.9096,-0.911,-0.9103,-0.898,-0.9074,-0.9073,-0.9072,-0.9071,-0.9071,-0.9419,-0.9426,-0.9397,-0.9388,-0.937,-0.9354,-0.9356,-0.9327,-0.9319,-0.9301,-0.9274,-0.927,-0.9244,-0.9215,-0.9199,-0.9195,-0.9175,-0.9183,-0.9186,-0.9189,-0.9195,-0.911,-0.9192,-0.9191,-0.9191,-0.9191,-0.919,0,-0.9516,-0.9495,-0.9487,-0.9463,-0.9457,-0.9422,-0.9401,-0.9397,-0.9394,-0.9372,-0.9362,-0.9353,-0.9342,-0.9307,-0.9294,-0.9297,-0.928,-0.9295,-0.9295,-0.9291,-0.9215,-0.9211,-0.9309,-0.9309,-0.9309,-0.9309,-0.9309,-0.9309,-0.9566,-0.9574,-0.955,-0.9549,-0.9528,-0.9523,-0.9513,-0.9499,-0.9481,-0.9473,-0.9464,-0.9441,-0.9413,-0.9397,-0.9386,-0.9376,-0.9373,-0.9394,-0.9379,-0.9308,-0.9297,-0.9286,-0.9282,-0.9394,-0.9394,-0.9455,-0.9456,-0.9456]},{"header":{"parameterUnit":"m.s-1","parameterCategory":1,"la1":30.2991,"la2":30.254,"lo1":-89.0895,"lo2":-89.0444,"dy":0.0017,"dx":0.0017,"nx":28,"ny":28,"refTime":"2024-08-24T21:00:00:Z","depth":0,"parameterNumber":3,"parameterNumberName":"V-component_of_WINDS"},"data":[0,0,0,0,0,0,0,0,0,0,0,0,0,0,0,0,0,0,0,0,0,0,0,0,0,0,0,0,0,0,0,0,0,0,0,0,0,0,0,0,0,0,0,0,0,0,0,0,0,0,0,0,0,0,0,0,0,0,1.7004,1.7004,0,1.7022,1.7022,1.7022,1.7019,1.7018,1.7018,1.7018,1.7034,1.7035,1.7036,0,0,0,0,0,0,0,0,0,0,0,0,0,1.6964,1.6965,1.7004,1.7004,1.7004,1.7022,1.7022,1.7023,1.7019,1.7018,1.7018,1.7017,1.7034,1.7035,1.7036,0,0,0,0,0,0,0,0,0,0,0,0,0,1.6982,1.6965,1.7004,1.7004,1.7005,1.7022,1.7022,1.7023,1.7019,1.7018,1.7018,1.7017,1.7034,1.7035,1.7036,1.7053,0,0,1.7039,1.704,0,0,0,0,0,0,0,0,1.6981,1.6983,1.7004,1.7004,1.7005,1.7018,1.7014,1.7033,1.7019,1.7013,1.7018,1.7017,1.7029,1.703,1.7035,1.7054,1.7054,1.7039,1.704,1.7041,1.7041,0,0,0,0,0,0,0,1.6979,1.6982,1.7011,1.7004,1.7005,1.7003,1.7005,1.7018,1.7024,1.7014,1.7014,1.7016,1.7029,1.7034,1.7035,1.7055,1.7039,1.704,1.7041,1.7042,1.7088,1.7089,0,0,0,0,0,0,1.6978,1.6981,1.701,1.7012,1.6991,1.7005,1.7007,1.7014,1.7024,1.7025,1.7016,1.7016,1.7032,1.7034,1.7036,1.7056,1.7041,1.7042,1.7042,1.7088,1.7089,1.7089,0,0,0,0,0,0,1.6977,1.6981,1.701,1.6996,1.7,1.7006,1.7014,1.7015,1.7019,1.7025,1.7026,1.702,1.7032,1.7034,1.7049,1.7057,1.7042,1.7043,1.7087,1.7088,1.7089,1.7097,0,0,0,0,0,0,1.6976,1.6981,1.6987,1.6997,1.7001,1.7023,1.7014,1.7015,1.7022,1.7021,1.7029,1.703,1.7032,1.7047,1.705,1.7058,1.7044,1.7087,1.7088,1.7089,1.7096,1.7098,1.71,0,0,0,0,0,1.6975,1.6988,1.6988,1.6991,1.7009,1.7023,1.7026,1.7027,1.7022,1.7029,1.7033,1.703,1.7056,1.7049,1.7052,1.706,1.7086,1.7087,1.7089,1.7096,1.7098,1.71,0,0,0,0,0,0,1.6979,1.699,1.6989,1.7006,1.7014,1.7023,1.7031,1.703,1.7039,1.7038,1.7039,1.7041,1.7056,1.706,1.7052,1.7078,1.707,1.7072,1.7074,1.7077,1.7079,1.7077,1.7045,0,0,0,0,0,1.6982,1.6993,1.7001,1.7016,1.702,1.7025,1.7031,1.7032,1.704,1.7043,1.7048,1.7055,1.7065,1.7071,1.708,1.7097,1.7099,1.7105,1.7107,1.7108,1.711,1.7119,1.7121,1.7093,1.7093,1.7093,0,0,1.6988,1.6995,1.7002,1.7017,1.7023,1.7034,1.7028,1.7039,1.7047,1.7044,1.7059,1.7063,1.7071,1.7087,1.7094,1.709,1.7118,1.711,1.7111,1.7112,1.712,1.7123,1.7125,1.7094,1.7094,1.7094,0,0,1.7004,1.7011,1.7024,1.7031,1.7041,1.7044,1.7047,1.7056,1.7059,1.7074,1.7072,1.7081,1.7098,1.7104,1.7109,1.7129,1.7127,1.7132,1.7142,1.7151,1.7153,1.7155,1.7162,1.7164,1.7134,1.7134,1.7134,0,1.701,1.7027,1.703,1.7042,1.7049,1.7048,1.7061,1.7067,1.7079,1.7083,1.708,1.7101,1.7107,1.7124,1.7129,1.7133,1.7137,1.7131,1.7153,1.7155,1.7156,1.7163,1.7165,1.7135,1.7135,1.7134,1.7134,0,1.7034,1.7046,1.7055,1.7067,1.7075,1.7087,1.7092,1.7099,1.71,1.7104,1.7119,1.7126,1.7136,1.7141,1.7141,1.7158,1.7156,1.7152,1.7145,1.716,1.7166,1.7168,1.7135,1.7135,1.7135,1.7135,0,0,1.7052,1.7067,1.707,1.7076,1.7088,1.7097,1.7109,1.7121,1.7127,1.7136,1.7146,1.716,1.7158,1.7164,1.7165,1.7173,1.7188,1.7168,1.7168,1.7171,1.7207,1.7209,1.7212,1.7187,1.7187,1.7188,1.7206,0,1.7069,1.7091,1.7095,1.7114,1.7125,1.7126,1.7136,1.7144,1.7148,1.7158,1.7162,1.7173,1.7168,1.7172,1.718,1.7184,1.7195,1.7183,1.7195,1.7196,1.7193,1.7215,1.7217,1.7234,1.7208,1.7209,1.7209,0,1.7091,1.7102,1.7122,1.7133,1.7138,1.7147,1.7159,1.7168,1.7177,1.7179,1.7187,1.7187,1.72,1.7193,1.721,1.7202,1.7207,1.721,1.7211,1.7211,1.7203,1.7215,1.7239,1.7241,1.7213,1.7213,1.7212,0,1.7102,1.7121,1.7136,1.7141,1.7154,1.7161,1.7166,1.7175,1.7182,1.7192,1.7196,1.7207,1.7212,1.7221,1.7224,1.7218,1.724,1.7234,1.7242,1.7242,1.7246,1.7245,1.727,1.7251,1.7251,1.7251,1.7251,0,1.712,1.7132,1.7141,1.715,1.7164,1.7169,1.7182,1.7188,1.7196,1.7206,1.7206,1.7215,1.722,1.7229,1.7232,1.7245,1.7248,1.725,1.725,1.7249,1.7249,1.7252,1.7251,1.7251,1.7251,1.7251,1.7251,0,1.7133,1.7139,1.7156,1.7167,1.7171,1.7181,1.719,1.7199,1.7203,1.7216,1.7219,1.7226,1.7238,1.7242,1.7256,1.7258,1.7273,1.7273,1.727,1.727,1.7278,1.7277,1.7305,1.7309,1.7288,1.7288,1.7288,0,1.7144,1.7154,1.7167,1.7174,1.718,1.7191,1.7199,1.7204,1.7211,1.7223,1.723,1.7242,1.7251,1.727,1.7276,1.7286,1.7286,1.7295,1.7287,1.7286,1.7285,1.7284,1.7285,1.7296,1.7296,1.7296,1.7297,0,1.7162,1.7165,1.7176,1.7188,1.7197,1.7207,1.7217,1.7222,1.7229,1.7237,1.7249,1.7257,1.7272,1.7283,1.7294,1.7299,1.7299,1.7299,1.7302,1.73,1.7298,1.7299,1.7273,1.7298,1.7298,1.7298,1.7298,1.7298,1.7174,1.7183,1.7194,1.7206,1.7214,1.7223,1.7232,1.7238,1.7249,1.7262,1.7264,1.7277,1.7286,1.7302,1.7307,1.7317,1.7315,1.7318,1.7319,1.732,1.732,1.7298,1.7319,1.7319,1.7319,1.7319,1.7319,0,1.7191,1.7199,1.721,1.7224,1.7234,1.7234,1.7245,1.7253,1.7265,1.7274,1.7284,1.7298,1.7309,1.7317,1.7328,1.7334,1.7334,1.7337,1.7336,1.7337,1.7322,1.7318,1.7337,1.7337,1.7337,1.7337,1.7337,1.7337,1.7202,1.7217,1.7221,1.7241,1.7248,1.7261,1.7267,1.7276,1.7283,1.7299,1.7309,1.7314,1.7323,1.7335,1.7345,1.7347,1.7351,1.7354,1.7355,1.734,1.7338,1.7337,1.7333,1.7355,1.7355,1.737,1.737,1.737]}]]